TimeCST,TemperatureF,Dew PointF,Humidity,Sea Level PressureIn,VisibilityMPH,Wind Direction,Wind SpeedMPH,Gust SpeedMPH,PrecipitationIn,Events,Conditions,WindDirDegrees,DateUTC
12:53 AM,72.0,70.0,93,30.01,10.0,South,3.5,-,N/A,,Clear,190,2012-11-06 06:53:00
1:53 AM,70.0,69.1,97,29.99,9.0,South,5.8,-,N/A,,Clear,190,2012-11-06 07:53:00
2:53 AM,71.1,70.0,96,29.99,9.0,SSW,3.5,-,N/A,,Clear,210,2012-11-06 08:53:00
3:53 AM,70.0,69.1,97,29.98,3.0,SSW,3.5,-,N/A,,Clear,200,2012-11-06 09:53:00
3:56 AM,69.8,69.8,100,29.98,1.8,SSW,3.5,-,N/A,,Clear,200,2012-11-06 09:56:00
4:13 AM,69.8,69.8,100,29.99,2.5,SSW,4.6,-,N/A,,Clear,210,2012-11-06 10:13:00
4:20 AM,69.8,69.8,100,29.99,5.0,SSW,4.6,-,N/A,,Clear,210,2012-11-06 10:20:00
4:53 AM,70.0,69.1,97,29.99,8.0,SSW,4.6,-,N/A,,Clear,200,2012-11-06 10:53:00
5:53 AM,69.1,68.0,96,30.01,6.0,South,3.5,-,N/A,,Clear,190,2012-11-06 11:53:00
6:53 AM,68.0,66.9,96,30.05,2.5,ESE,3.5,-,N/A,,Partly Cloudy,110,2012-11-06 12:53:00
7:01 AM,69.8,68.0,94,30.05,3.0,SSE,4.6,-,N/A,,Scattered Clouds,150,2012-11-06 13:01:00
7:28 AM,69.8,69.8,100,30.08,5.0,Variable,4.6,17.3,N/A,,Partly Cloudy,0,2012-11-06 13:28:00
7:53 AM,72.0,69.1,91,30.09,10.0,North,4.6,-,N/A,,Clear,10,2012-11-06 13:53:00
8:53 AM,78.1,71.1,79,30.09,10.0,ENE,9.2,-,N/A,,Clear,70,2012-11-06 14:53:00
9:53 AM,82.0,68.0,62,30.10,10.0,East,6.9,-,N/A,,Clear,90,2012-11-06 15:53:00
10:53 AM,84.0,68.0,58,30.10,10.0,East,6.9,-,N/A,,Clear,90,2012-11-06 16:53:00
11:53 AM,84.9,66.9,55,30.09,10.0,NE,13.8,18.4,N/A,,Clear,50,2012-11-06 17:53:00
12:53 PM,86.0,66.9,53,30.07,10.0,NE,12.7,19.6,N/A,,Clear,40,2012-11-06 18:53:00
1:53 PM,84.0,66.9,56,30.06,10.0,ENE,12.7,-,N/A,,Scattered Clouds,60,2012-11-06 19:53:00
2:53 PM,84.0,63.0,49,30.06,10.0,NE,11.5,-,N/A,,Partly Cloudy,40,2012-11-06 20:53:00
3:53 PM,82.9,57.0,41,30.05,10.0,ENE,10.4,-,N/A,,Clear,70,2012-11-06 21:53:00
4:53 PM,80.1,59.0,48,30.06,10.0,ENE,9.2,18.4,N/A,,Clear,60,2012-11-06 22:53:00
5:53 PM,75.9,59.0,56,30.08,10.0,ENE,6.9,-,N/A,,Clear,70,2012-11-06 23:53:00
6:53 PM,72.0,60.1,66,30.09,10.0,ENE,5.8,-,N/A,,Clear,60,2012-11-07 00:53:00
7:53 PM,70.0,60.1,71,30.11,10.0,Calm,Calm,-,N/A,,Clear,0,2012-11-07 01:53:00
8:53 PM,69.1,60.1,73,30.12,10.0,ENE,3.5,-,N/A,,Clear,60,2012-11-07 02:53:00
9:53 PM,69.1,60.1,73,30.12,10.0,ENE,3.5,-,N/A,,Clear,60,2012-11-07 03:53:00
10:53 PM,66.9,60.1,79,30.12,10.0,Calm,Calm,-,N/A,,Clear,0,2012-11-07 04:53:00
11:53 PM,66.0,60.1,81,30.12,10.0,Calm,Calm,-,N/A,,Clear,0,2012-11-07 05:53:00